Language: 


Des rapports , des résumés tant et plus, au choix de chacun....


Données Historiques de Météogheer
Journalier Rapport pour Janvier 26, 2018 Unitée:  Impériale    Métrique   Les deux
Suivant Jour »
Journalier Hebdomadaire Mensuel Annuel Sur mesure
  Max: Min: Moyenne:
Température: 48.4 °F 36.7 °F 42.1 °F
Point de rosée: 48.2 °F 37.4 °F 41.9 °F
Humidité: 98% 87% 96%
Vent: 7.6mph 0mph 1.3mph
Rafales: 8.9mph - -
Vent- - WSW
Pression: 30.3 in 29.9 in -
Pluie: 0 in    
Historical Graphs
 
 
Données tabulaires pour Janvier 26, 2018
Heure Température Point de rosée Pression Vent Vent Rafales Humidité Pluie Taux (Horaire) Conditions
00:04 42.6 °F 42.8 °F 29.9 in SW 2.5 mph 5.8 mph 98% 0 in
00:09 42.4 °F 42.8 °F 29.9 in Calm   4.9 mph 98% 0 in
00:14 42.4 °F 42.8 °F 29.9 in Calm   4.5 mph 98% 0 in
00:19 42.3 °F 42.8 °F 29.9 in SSW 3.1 mph 4.5 mph 98% 0 in
00:24 42.3 °F 42.8 °F 29.9 in South 2.9 mph 4.3 mph 98% 0 in
00:29 42.3 °F 42.8 °F 29.9 in South 3.6 mph 4.3 mph 98% 0 in
00:34 42.3 °F 42.8 °F 29.9 in SSW 4.7 mph 5.6 mph 98% 0 in
00:39 42.1 °F 42.8 °F 29.9 in South 1.6 mph 5.6 mph 98% 0 in
00:44 41.9 °F 42.8 °F 29.9 in Calm   4 mph 98% 0 in
00:49 41.7 °F 42.8 °F 29.9 in Calm   3.4 mph 98% 0 in
00:54 41.4 °F 41 °F 29.9 in Calm   2 mph 98% 0 in
00:59 41 °F 41 °F 29.9 in Calm   2 mph 98% 0 in
01:04 41 °F 41 °F 29.9 in Calm   2.5 mph 98% 0 in
01:09 41 °F 41 °F 29.9 in SSW 1.6 mph 2.9 mph 98% 0 in
01:14 41 °F 41 °F 29.9 in Calm   3.8 mph 98% 0 in
01:19 41 °F 41 °F 29.9 in Calm   4 mph 98% 0 in
01:24 41 °F 41 °F 29.9 in South 3.1 mph 4 mph 98% 0 in
01:29 41 °F 41 °F 29.9 in Calm   4.3 mph 98% 0 in
01:34 41 °F 41 °F 29.9 in Calm   4.3 mph 98% 0 in
01:39 41 °F 41 °F 29.9 in Calm   2.9 mph 98% 0 in
01:44 41 °F 41 °F 29.9 in South 2 mph 5.4 mph 98% 0 in
01:49 40.8 °F 41 °F 29.9 in Calm   5.4 mph 98% 0 in
01:54 40.8 °F 41 °F 29.9 in SSE 3.1 mph 5.4 mph 98% 0 in
01:59 40.8 °F 41 °F 29.9 in Calm   5.4 mph 98% 0 in
02:04 40.6 °F 41 °F 29.9 in Calm   5.8 mph 98% 0 in
02:09 40.6 °F 41 °F 29.9 in Calm   5.8 mph 98% 0 in
02:14 40.5 °F 41 °F 29.9 in SSW 1.6 mph 4 mph 98% 0 in
02:19 40.5 °F 41 °F 29.9 in SSW 2 mph 4 mph 98% 0 in
02:24 40.5 °F 41 °F 29.9 in Calm   4 mph 98% 0 in
02:29 40.5 °F 41 °F 29.9 in Calm   1.1 mph 98% 0 in
02:34 40.3 °F 41 °F 29.9 in Calm     98% 0 in
02:39 40.1 °F 41 °F 29.9 in Calm   1.6 mph 98% 0 in
02:44 39.9 °F 39.2 °F 29.9 in Calm   2 mph 98% 0 in
02:49 39.7 °F 39.2 °F 29.9 in Calm   2.9 mph 98% 0 in
02:55 39.7 °F 39.2 °F 29.9 in South 3.1 mph 3.1 mph 98% 0 in
03:00 39.7 °F 39.2 °F 29.9 in Calm   4 mph 98% 0 in
03:05 39.9 °F 39.2 °F 29.9 in South 3.1 mph 4 mph 98% 0 in
03:10 39.9 °F 39.2 °F 29.9 in South 3.4 mph 4 mph 98% 0 in
03:15 39.9 °F 39.2 °F 29.9 in South 4.7 mph 5.6 mph 98% 0 in
03:20 39.7 °F 39.2 °F 29.9 in South 5.4 mph 5.8 mph 98% 0 in
03:25 39.7 °F 39.2 °F 29.9 in SSW 4.3 mph 5.8 mph 98% 0 in
03:30 39.9 °F 39.2 °F 29.9 in Calm   4.9 mph 98% 0 in
03:35 39.7 °F 39.2 °F 29.9 in Calm   4.3 mph 98% 0 in
03:40 39.7 °F 39.2 °F 29.9 in South 2.5 mph 3.1 mph 98% 0 in
03:45 39.4 °F 39.2 °F 29.9 in Calm   3.6 mph 98% 0 in
03:50 39.4 °F 39.2 °F 29.9 in Calm   3.8 mph 98% 0 in
03:55 39.4 °F 39.2 °F 29.9 in South 1.3 mph 5.4 mph 98% 0 in
04:00 39.4 °F 39.2 °F 29.9 in SSE 4.3 mph 5.6 mph 98% 0 in
04:05 39.4 °F 39.2 °F 29.9 in Calm   6.3 mph 98% 0 in
04:10 39.6 °F 39.2 °F 29.9 in SSW 5.4 mph 6.3 mph 98% 0 in
04:16 39.6 °F 39.2 °F 29.9 in SSW 1.3 mph 6.3 mph 98% 0 in
04:21 39.6 °F 39.2 °F 29.9 in South 2.5 mph 6.3 mph 98% 0 in
04:26 39.4 °F 39.2 °F 29.9 in South 1.1 mph 4.3 mph 98% 0 in
04:31 39.2 °F 39.2 °F 29.9 in Calm   2.9 mph 98% 0 in
04:36 39 °F 39.2 °F 29.9 in Calm   2 mph 98% 0 in
04:41 38.8 °F 39.2 °F 29.9 in Calm   2 mph 98% 0 in
04:46 38.5 °F 39.2 °F 29.9 in Calm   2 mph 98% 0 in
04:51 38.3 °F 39.2 °F 29.9 in Calm   0.9 mph 98% 0 in
04:56 38.3 °F 39.2 °F 29.9 in Calm   0.9 mph 98% 0 in
05:01 38.3 °F 39.2 °F 29.9 in Calm     98% 0 in
05:06 38.5 °F 39.2 °F 29.9 in Calm   2.7 mph 98% 0 in
05:11 38.5 °F 39.2 °F 29.9 in Calm   2.7 mph 98% 0 in
05:16 38.3 °F 39.2 °F 29.9 in Calm     98% 0 in
05:21 38.3 °F 39.2 °F 29.9 in Calm   2.7 mph 98% 0 in
05:26 38.1 °F 37.4 °F 29.9 in Calm   3.4 mph 98% 0 in
05:31 38.1 °F 37.4 °F 29.9 in Calm   4 mph 98% 0 in
05:36 38.1 °F 37.4 °F 29.9 in South 5.4 mph 5.4 mph 98% 0 in
05:41 38.1 °F 37.4 °F 29.9 in Calm   5.4 mph 98% 0 in
05:46 38.1 °F 37.4 °F 29.9 in Calm   5.4 mph 98% 0 in
05:51 38.3 °F 39.2 °F 29.9 in Calm   3.1 mph 98% 0 in
05:56 38.5 °F 39.2 °F 29.9 in Calm   3.8 mph 98% 0 in
06:01 38.5 °F 39.2 °F 29.9 in Calm   3.8 mph 98% 0 in
06:06 38.5 °F 39.2 °F 29.9 in Calm   2.9 mph 98% 0 in
06:12 38.5 °F 39.2 °F 29.9 in Calm   2.9 mph 98% 0 in
06:17 38.5 °F 39.2 °F 29.9 in Calm   3.4 mph 98% 0 in
06:22 38.3 °F 39.2 °F 29.9 in Calm   5.8 mph 98% 0 in
06:27 38.5 °F 39.2 °F 29.9 in SSE 6.3 mph 6.3 mph 98% 0 in
06:32 38.5 °F 39.2 °F 29.9 in South 5.8 mph 6.5 mph 98% 0 in
06:37 38.5 °F 39.2 °F 29.9 in South 3.6 mph 6.5 mph 98% 0 in
06:42 38.5 °F 39.2 °F 29.9 in Calm   5.8 mph 98% 0 in
06:47 38.5 °F 39.2 °F 29.9 in SSW 2.2 mph 5.4 mph 98% 0 in
06:52 38.3 °F 39.2 °F 29.9 in South 2 mph 3.1 mph 98% 0 in
06:57 38.5 °F 39.2 °F 29.9 in Calm   2.7 mph 98% 0 in
07:02 38.5 °F 39.2 °F 29.9 in Calm   4 mph 98% 0 in
07:07 38.7 °F 39.2 °F 29.9 in Calm   4 mph 98% 0 in
07:12 38.3 °F 39.2 °F 29.9 in Calm   3.6 mph 98% 0 in
07:17 38.1 °F 37.4 °F 29.9 in Calm     98% 0 in
07:22 37.8 °F 37.4 °F 29.9 in Calm     98% 0 in
07:27 37.6 °F 37.4 °F 29.9 in Calm     98% 0 in
07:32 37.6 °F 37.4 °F 29.9 in Calm     98% 0 in
07:37 37.6 °F 37.4 °F 29.9 in Calm     98% 0 in
07:42 37.4 °F 37.4 °F 29.9 in Calm     98% 0 in
07:47 37.4 °F 37.4 °F 29.9 in Calm     98% 0 in
07:52 37.2 °F 37.4 °F 29.9 in Calm   0.9 mph 98% 0 in
07:57 37.2 °F 37.4 °F 29.9 in Calm   1.1 mph 98% 0 in
08:02 37.4 °F 37.4 °F 29.9 in Calm   1.1 mph 98% 0 in
08:07 37.4 °F 37.4 °F 29.9 in Calm   0.9 mph 98% 0 in
08:12 37.4 °F 37.4 °F 29.9 in Calm   0.9 mph 98% 0 in
08:17 37.4 °F 37.4 °F 29.9 in Calm     98% 0 in
08:22 37.4 °F 37.4 °F 29.9 in Calm   0.9 mph 98% 0 in
08:27 37 °F 37.4 °F 29.9 in Calm   0.9 mph 98% 0 in
08:32 37 °F 37.4 °F 29.9 in Calm     98% 0 in
08:37 37 °F 37.4 °F 29.9 in Calm     98% 0 in
08:42 37 °F 37.4 °F 29.9 in Calm     98% 0 in
08:47 36.9 °F 37.4 °F 30 in Calm     98% 0 in
08:52 36.7 °F 37.4 °F 30 in Calm     98% 0 in
08:57 36.9 °F 37.4 °F 30 in Calm     98% 0 in
09:00 36.9 °F 37.4 °F 30 in Calm     98% 0 in
09:05 37 °F 37.4 °F 30 in Calm     98% 0 in
09:11 37.2 °F 37.4 °F 30 in Calm   1.6 mph 98% 0 in
09:16 37.6 °F 37.4 °F 30 in South 0.9 mph 1.6 mph 98% 0 in
09:21 37.9 °F 37.4 °F 30 in Calm   0.9 mph 98% 0 in
09:26 38.1 °F 37.4 °F 30 in Calm   0.9 mph 98% 0 in
09:31 38.5 °F 39.2 °F 30 in Calm   2 mph 98% 0 in
09:36 38.7 °F 39.2 °F 30 in Calm   2 mph 98% 0 in
09:41 38.8 °F 39.2 °F 30 in Calm     98% 0 in
09:46 38.8 °F 39.2 °F 30 in Calm     98% 0 in
09:51 38.8 °F 39.2 °F 30 in Calm   2.7 mph 98% 0 in
09:56 38.8 °F 39.2 °F 30 in Calm   2.7 mph 98% 0 in
10:01 39 °F 39.2 °F 30 in Calm     98% 0 in
10:06 39.4 °F 39.2 °F 30 in Calm     98% 0 in
10:11 39.9 °F 39.2 °F 30 in Calm     98% 0 in
10:16 40.1 °F 41 °F 30 in Calm   2 mph 98% 0 in
10:21 40.5 °F 41 °F 30 in Calm   4.5 mph 98% 0 in
10:26 41 °F 41 °F 30 in Calm   4.5 mph 98% 0 in
10:31 41.2 °F 41 °F 30 in South 2.9 mph 3.6 mph 98% 0 in
10:36 41.2 °F 41 °F 30 in Calm   5.8 mph 98% 0 in
10:41 41.5 °F 42.8 °F 30 in South 1.6 mph 5.8 mph 98% 0 in
10:46 41.5 °F 42.8 °F 30 in Calm   1.6 mph 98% 0 in
10:51 41.5 °F 42.8 °F 30 in SSW 2.7 mph 2.7 mph 98% 0 in
10:56 41.7 °F 42.8 °F 30 in South 2.5 mph 2.7 mph 98% 0 in
11:01 41.7 °F 42.8 °F 30 in Calm   3.8 mph 98% 0 in
11:06 41.9 °F 42.8 °F 30 in Calm   3.8 mph 98% 0 in
11:11 42.1 °F 42.8 °F 30 in South 4.3 mph 5.6 mph 98% 0 in
11:17 42.3 °F 42.8 °F 30 in Calm   5.6 mph 98% 0 in
11:22 42.4 °F 42.8 °F 30 in Calm   2.7 mph 98% 0 in
11:27 43.5 °F 42.8 °F 30 in Calm   6 mph 98% 0 in
11:32 43.9 °F 44.6 °F 30 in Calm   6 mph 98% 0 in
11:37 44.2 °F 44.6 °F 30 in SW 5.4 mph 6 mph 98% 0 in
11:42 44.2 °F 44.6 °F 30 in SSW 4.7 mph 6 mph 98% 0 in
11:47 44.2 °F 44.6 °F 30 in SW 7.2 mph 7.2 mph 98% 0 in
11:52 44.2 °F 44.6 °F 30 in SW 4.9 mph 7.4 mph 98% 0 in
11:57 44.2 °F 44.6 °F 30 in WSW 6 mph 7.8 mph 98% 0 in
12:02 44.6 °F 44.6 °F 30 in Calm   7.8 mph 98% 0 in
12:07 45 °F 44.6 °F 30 in Calm   6.5 mph 98% 0 in
12:12 45.5 °F 46.4 °F 30 in WSW 6.3 mph 6.3 mph 98% 0 in
12:17 46.2 °F 46.4 °F 30 in WSW 5.4 mph 6.3 mph 98% 0 in
12:22 46.8 °F 46.4 °F 30 in SSW 6.3 mph 6.3 mph 98% 0 in
12:27 46.8 °F 46.4 °F 30 in West 5.8 mph 6.3 mph 98% 0 in
12:32 46.8 °F 46.4 °F 30 in WSW 5.8 mph 6.5 mph 98% 0 in
12:37 46.8 °F 46.4 °F 30 in SW 5.8 mph 6.5 mph 98% 0 in
12:42 46.8 °F 46.4 °F 30 in WSW 4.9 mph 6.3 mph 98% 0 in
12:47 46.6 °F 46.4 °F 30.1 in WSW 3.6 mph 6.3 mph 98% 0 in
12:52 46.6 °F 46.4 °F 30.1 in WSW 4.9 mph 6.3 mph 98% 0 in
12:57 46.6 °F 46.4 °F 30.1 in WSW 4 mph 6.3 mph 98% 0 in
13:02 46.8 °F 46.4 °F 30.1 in WSW 7.6 mph 7.6 mph 98% 0 in
13:07 46.8 °F 46.4 °F 30.1 in West 5.6 mph 7.6 mph 98% 0 in
13:12 47.1 °F 48.2 °F 30.1 in WSW 5.8 mph 7.8 mph 98% 0 in
13:17 47.1 °F 48.2 °F 30 in West 7.2 mph 7.8 mph 98% 0 in
13:23 47.1 °F 48.2 °F 30 in West 5.6 mph 7.2 mph 98% 0 in
13:28 47.1 °F 48.2 °F 30 in WSW 6 mph 7.6 mph 98% 0 in
13:33 47.1 °F 48.2 °F 30.1 in West 4.5 mph 7.6 mph 98% 0 in
13:38 47.3 °F 48.2 °F 30.1 in Calm   7.2 mph 98% 0 in
13:43 47.1 °F 48.2 °F 30.1 in Calm   7.4 mph 98% 0 in
13:48 47.1 °F 48.2 °F 30.1 in West 4.5 mph 7.4 mph 98% 0 in
13:53 47.3 °F 48.2 °F 30.1 in Calm   5.4 mph 98% 0 in
13:58 47.3 °F 48.2 °F 30.1 in WSW 4.5 mph 5.6 mph 98% 0 in
14:03 47.3 °F 48.2 °F 30.1 in WSW 6 mph 6 mph 98% 0 in
14:08 47.1 °F 48.2 °F 30.1 in West 3.6 mph 6 mph 98% 0 in
14:13 47.3 °F 48.2 °F 30.1 in West 5.4 mph 6.5 mph 98% 0 in
14:18 47.5 °F 48.2 °F 30.1 in Calm   6.5 mph 98% 0 in
14:23 47.7 °F 48.2 °F 30.1 in Calm   6.3 mph 98% 0 in
14:28 47.7 °F 48.2 °F 30.1 in Calm   4.3 mph 98% 0 in
14:33 47.7 °F 48.2 °F 30.1 in WSW 3.8 mph 4.3 mph 97% 0 in
14:38 47.7 °F 48.2 °F 30.1 in Calm   4.3 mph 97% 0 in
14:43 47.7 °F 48.2 °F 30.1 in Calm   4.3 mph 97% 0 in
14:48 47.8 °F 48.2 °F 30.1 in Calm   2.5 mph 97% 0 in
14:53 48 °F 48.2 °F 30.1 in Calm   2 mph 97% 0 in
14:58 48 °F 48.2 °F 30.1 in Calm     97% 0 in
15:03 48.2 °F 48.2 °F 30.1 in Calm     96% 0 in
15:08 48.4 °F 48.2 °F 30.1 in Calm     96% 0 in
15:13 48.4 °F 48.2 °F 30.1 in Calm     96% 0 in
15:18 48.2 °F 48.2 °F 30.1 in Calm   3.1 mph 95% 0 in
15:23 48 °F 48.2 °F 30.1 in NNE 1.1 mph 3.1 mph 95% 0 in
15:28 48 °F 48.2 °F 30.1 in Calm   1.1 mph 95% 0 in
15:33 48.2 °F 46.4 °F 30.1 in Calm   1.1 mph 94% 0 in
15:38 48.2 °F 46.4 °F 30.1 in WSW 3.6 mph 3.8 mph 94% 0 in
15:43 47.8 °F 46.4 °F 30.1 in North 4.3 mph 8.9 mph 94% 0 in
15:49 47.8 °F 46.4 °F 30.1 in North 3.8 mph 8.9 mph 93% 0 in
15:54 47.7 °F 46.4 °F 30.1 in NNW 5.4 mph 5.8 mph 92% 0 in
15:59 47.7 °F 46.4 °F 30.1 in WNW 0.9 mph 5.4 mph 92% 0 in
16:04 47.7 °F 46.4 °F 30.1 in NNW 6 mph 6 mph 92% 0 in
16:09 47.7 °F 46.4 °F 30.1 in North 7.2 mph 7.2 mph 92% 0 in
16:14 47.5 °F 44.6 °F 30.1 in NW 4 mph 8.1 mph 89% 0 in
16:19 47.5 °F 44.6 °F 30.1 in NNW 5.4 mph 8.1 mph 88% 0 in
16:24 47.3 °F 44.6 °F 30.1 in WNW 3.8 mph 6.3 mph 88% 0 in
16:29 47.3 °F 44.6 °F 30.1 in WNW 1.3 mph 5.6 mph 89% 0 in
16:34 47.1 °F 44.6 °F 30.1 in North 3.6 mph 4.9 mph 88% 0 in
16:39 47.1 °F 44.6 °F 30.1 in NW 3.6 mph 4.9 mph 88% 0 in
16:44 46.9 °F 44.6 °F 30.1 in NNW 3.8 mph 5.6 mph 87% 0 in
16:49 46.6 °F 42.8 °F 30.1 in Calm   5.6 mph 87% 0 in
16:54 46.4 °F 42.8 °F 30.1 in NW 5.4 mph 5.4 mph 87% 0 in
16:59 46.2 °F 42.8 °F 30.2 in NNW 0.9 mph 5.4 mph 87% 0 in
17:04 45.9 °F 42.8 °F 30.2 in NW 4.3 mph 4.9 mph 87% 0 in
17:09 45.5 °F 42.8 °F 30.2 in WNW 1.3 mph 4.7 mph 87% 0 in
17:14 45.5 °F 42.8 °F 30.2 in Calm   4.7 mph 88% 0 in
17:19 45.1 °F 42.8 °F 30.2 in Calm   3.1 mph 88% 0 in
17:24 44.6 °F 41 °F 30.2 in Calm   1.6 mph 88% 0 in
17:29 44.2 °F 41 °F 30.2 in Calm   1.6 mph 89% 0 in
17:34 43.7 °F 41 °F 30.2 in Calm   1.3 mph 88% 0 in
17:39 43.5 °F 41 °F 30.2 in Calm   1.3 mph 89% 0 in
17:44 43.5 °F 41 °F 30.2 in NW 1.1 mph 3.1 mph 89% 0 in
17:49 43.3 °F 41 °F 30.2 in NNW 5.8 mph 5.8 mph 90% 0 in
17:54 43 °F 41 °F 30.2 in Calm   5.8 mph 91% 0 in
17:59 42.8 °F 41 °F 30.2 in Calm   4 mph 91% 0 in
18:04 42.6 °F 41 °F 30.2 in Calm   2.5 mph 91% 0 in
18:09 42.3 °F 41 °F 30.2 in Calm     91% 0 in
18:14 42.3 °F 41 °F 30.2 in Calm   3.1 mph 92% 0 in
18:19 42.3 °F 41 °F 30.2 in Calm   3.1 mph 93% 0 in
18:24 42.3 °F 41 °F 30.2 in Calm   3.4 mph 93% 0 in
18:29 42.3 °F 41 °F 30.2 in West 1.6 mph 3.4 mph 94% 0 in
18:34 42.3 °F 41 °F 30.2 in NNW 0.9 mph 3.6 mph 94% 0 in
18:39 42.3 °F 41 °F 30.2 in Calm   3.6 mph 95% 0 in
18:44 42.3 °F 41 °F 30.2 in Calm   2.5 mph 95% 0 in
18:49 42.3 °F 41 °F 30.2 in Calm   1.6 mph 95% 0 in
18:54 42.4 °F 42.8 °F 30.2 in Calm   2.5 mph 95% 0 in
19:00 42.6 °F 42.8 °F 30.2 in NW 3.8 mph 4.3 mph 96% 0 in
19:05 42.8 °F 42.8 °F 30.2 in West 1.3 mph 4 mph 96% 0 in
19:10 43 °F 42.8 °F 30.2 in Calm   4 mph 96% 0 in
19:15 43 °F 42.8 °F 30.2 in Calm   4 mph 96% 0 in
19:20 43.2 °F 42.8 °F 30.2 in Calm   4 mph 96% 0 in
19:25 43 °F 42.8 °F 30.2 in Calm   4 mph 96% 0 in
19:30 43 °F 42.8 °F 30.2 in Calm   2.5 mph 96% 0 in
19:35 43 °F 42.8 °F 30.2 in Calm   3.6 mph 96% 0 in
19:40 42.8 °F 42.8 °F 30.2 in Calm   3.6 mph 96% 0 in
19:45 42.6 °F 42.8 °F 30.2 in Calm     96% 0 in
19:50 42.4 °F 42.8 °F 30.2 in Calm   4 mph 95% 0 in
19:55 42.3 °F 41 °F 30.2 in Calm   4 mph 95% 0 in
20:00 42.1 °F 41 °F 30.2 in West 1.3 mph 4 mph 95% 0 in
20:05 42.3 °F 42.8 °F 30.2 in Calm   6 mph 96% 0 in
20:10 42.4 °F 42.8 °F 30.2 in Calm   6 mph 97% 0 in
20:15 42.6 °F 42.8 °F 30.3 in NW 2 mph 4.7 mph 97% 0 in
20:20 42.8 °F 42.8 °F 30.3 in Calm   6.5 mph 97% 0 in
20:25 43 °F 42.8 °F 30.3 in NW 0.9 mph 6.5 mph 97% 0 in
20:30 43 °F 42.8 °F 30.3 in West 1.3 mph 5.8 mph 97% 0 in
20:35 43 °F 42.8 °F 30.3 in WNW 2.5 mph 4.9 mph 96% 0 in
20:40 43 °F 42.8 °F 30.3 in NNE 2.7 mph 7.4 mph 96% 0 in
20:46 43.2 °F 42.8 °F 30.3 in North 1.3 mph 7.4 mph 96% 0 in
20:51 43.2 °F 42.8 °F 30.3 in NNW 3.1 mph 5.6 mph 96% 0 in
20:56 43.3 °F 42.8 °F 30.3 in WNW 2.5 mph 5.6 mph 96% 0 in
21:01 43.3 °F 42.8 °F 30.3 in West 4.3 mph 6 mph 95% 0 in
21:06 43.3 °F 42.8 °F 30.3 in WNW 3.6 mph 6 mph 95% 0 in
21:11 43.3 °F 42.8 °F 30.3 in Calm   4.5 mph 95% 0 in
21:16 43.3 °F 42.8 °F 30.3 in Calm   5.4 mph 95% 0 in
21:21 43.3 °F 42.8 °F 30.3 in NNW 0.9 mph 5.4 mph 94% 0 in
21:26 43.3 °F 42.8 °F 30.3 in Calm   2.5 mph 94% 0 in
21:31 43.2 °F 42.8 °F 30.3 in Calm   3.6 mph 94% 0 in
21:36 43.2 °F 42.8 °F 30.3 in Calm   3.6 mph 94% 0 in
21:41 43.2 °F 42.8 °F 30.3 in Calm   2.9 mph 94% 0 in
21:46 43.2 °F 42.8 °F 30.3 in Calm   2.9 mph 94% 0 in
21:51 43.2 °F 42.8 °F 30.3 in Calm   3.6 mph 94% 0 in
21:56 43.2 °F 42.8 °F 30.3 in Calm   3.6 mph 94% 0 in
22:01 43.2 °F 42.8 °F 30.3 in Calm   1.1 mph 94% 0 in
22:07 43 °F 41 °F 30.3 in Calm     94% 0 in
22:12 43 °F 41 °F 30.3 in Calm   3.1 mph 94% 0 in
22:17 43 °F 41 °F 30.3 in Calm   3.1 mph 94% 0 in
22:22 42.6 °F 42.8 °F 30.3 in Calm   2.7 mph 95% 0 in
22:27 42.4 °F 42.8 °F 30.3 in Calm   2.7 mph 95% 0 in
22:32 42.3 °F 41 °F 30.3 in Calm   2.7 mph 95% 0 in
22:37 42.1 °F 41 °F 30.3 in Calm   2.7 mph 95% 0 in
22:42 42.1 °F 41 °F 30.3 in Calm   1.6 mph 95% 0 in
22:48 41.9 °F 41 °F 30.3 in Calm   1.1 mph 95% 0 in
22:53 41.7 °F 41 °F 30.3 in Calm     95% 0 in
22:58 41.7 °F 41 °F 30.3 in Calm   1.6 mph 95% 0 in
23:03 41.7 °F 41 °F 30.3 in Calm   2 mph 96% 0 in
23:08 41.5 °F 41 °F 30.3 in Calm   2 mph 96% 0 in
23:13 41.5 °F 41 °F 30.3 in Calm   2.9 mph 96% 0 in
23:18 41.4 °F 41 °F 30.3 in Calm   2.9 mph 96% 0 in
23:23 41.2 °F 41 °F 30.3 in Calm   2.9 mph 96% 0 in
23:28 41.2 °F 41 °F 30.3 in Calm     97% 0 in
23:33 41.4 °F 41 °F 30.3 in Calm     97% 0 in
23:38 41.4 °F 41 °F 30.3 in Calm     97% 0 in
23:43 41.4 °F 41 °F 30.3 in Calm     97% 0 in
23:48 41.2 °F 41 °F 30.3 in Calm     98% 0 in
23:53 41.2 °F 41 °F 30.3 in Calm     98% 0 in
23:58 41.2 °F 41 °F 30.3 in Calm     98% 0 in
Données Historique de Météo Turbie

Mise a jour : 21/05/2018 16:42:13
Généré par Cumulus 1.9.4 (1099)